Regional Weather Roundup
Issued by NWS

Home | Current Version | Previous Version | Graphics & Text | Print | Product List | Glossary On
Versions: 1 2 3 4 5 6 7 8 9 10 11 12 13 14 15 16 17 18 19 20 21 22 23 24 25 26 27 28 29 30 31 32 33 34 35 36 37 38 39 40 41 42 43 44 45 46 47 48 49 50
000
ASUS43 KMKX 211300
RWRWI

WISCONSIN REGIONAL WEATHER ROUNDUP
NATIONAL WEATHER SERVICE MILWAUKEE/SULLIVAN WI
700 AM CST SUN DEC 21 2014

NOTE: "FAIR" INDICATES FEW OR NO CLOUDS BELOW 12,000 FEET WITH NO
SIGNIFICANT WEATHER AND/OR OBSTRUCTIONS TO VISIBILITY.

WIZ001-002-006>008-014>016-023>028-211400-
NORTHWEST WISCONSIN

CITY           SKY/WX    TMP DP  RH WIND       PRES   REMARKS
SUPERIOR ARPT  CLOUDY    32  28  87 S3        29.96S
ASHLAND        CLOUDY    31  26  82 S6        29.99F WCI  25
HAYWARD        CLOUDY    30  27  88 SE8       29.95F FOG     WCI  22
SIREN          CLOUDY    32  29  90 S13       29.94F FOG     WCI  22
CUMBERLAND     CLOUDY    30  28  93 SE12      29.95F FOG     WCI  21
RICE LAKE      CLOUDY    31  29  94 SE10      29.98F FOG     WCI  22
CHETEK         CLOUDY    30  29  95 SE12      29.97F FOG     WCI  20
LADYSMITH      CLOUDY    31  28  90 SE9       30.00F WCI  23
EAU CLAIRE     NOT AVBL
MENOMONIE      CLOUDY    32  30  94 E12       29.98F FOG     WCI  23
NEW RICHMOND   CLOUDY    32  31  97 SE8       29.94F FOG     WCI  25
OSCEOLA        CLOUDY    32  32 100 SE9       29.96F FOG     WCI  24
$$

WIZ003>005-009-010-017-018-211400-
NORTH CENTRAL WISCONSIN

CITY           SKY/WX    TMP DP  RH WIND       PRES   REMARKS
MANITOWISH WTR CLOUDY    27  27  99 S8        30.00F FOG     WCI  19
ARBOR VITAE    CLOUDY    29  28  94 S7        30.02S FOG     WCI  22
WOODRUFF       CLOUDY    29  28  94 S7        30.02S FOG     WCI  22
RHINELANDER    CLOUDY    27  26  96 S7        30.04S FOG     WCI  19
EAGLE RIVER    CLOUDY    27  27 100 S8        30.03S FOG     WCI  18
LAND O LAKES   CLOUDY    28  27  96 S9        30.03S FOG     WCI  19
PHILLIPS       CLOUDY    28  26  93 SE9       29.99F WCI  19
TOMAHAWK       CLOUDY    28  26  96 CALM      30.04F FOG
MEDFORD        CLOUDY    28  27  95 SE8       30.02S FOG     WCI  20
MERRILL        CLOUDY    28  28  98 SE7       30.05F FOG     WCI  21
$$

WIZ029-030-035-036-043>047-211400-
CENTRAL WISCONSIN

CITY           SKY/WX    TMP DP  RH WIND       PRES   REMARKS
WAUSAU         CLOUDY    29  27  92 SE9       30.05F FOG     WCI  20
MOSINEE        CLOUDY    28  28 100 SE9       30.07F FOG     WCI  20
MARSHFIELD     CLOUDY    30  27  88 S12       30.04F FOG     WCI  20
STEVENS POINT  CLOUDY    28  26  94 SE6       30.08F FOG     WCI  21
WAUPACA        CLOUDY    32  29  88 SE5       30.12F FOG     WCI  27
WAUTOMA        CLOUDY    30  30 100 SE6       30.12S FOG     WCI  24
WISC RAPIDS    CLOUDY    30  26  85 S9        30.08F FOG     WCI  22
CAMP DOUGLAS   CLOUDY    31  31 100 SE8       30.05F FOG     WCI  23
$$

WIZ011>013-019>022-031-037>040-048>050-211400-
NORTHEAST WISCONSIN

CITY           SKY/WX    TMP DP  RH WIND       PRES   REMARKS
ANTIGO         FOG       26  26 100 S8        30.06F VSB 1   WCI  18
SHAWANO        CLOUDY    31  28  87 S3        30.13F FOG
OCONTO         CLOUDY    30  28  92 SE5       30.15F WCI  25
STURGEON BAY   CLOUDY    30  25  80 S7        30.16F WCI  23
GREEN BAY      CLOUDY    31  27  85 S7        30.14F FOG     WCI  24
MANITOWOC      NOT AVBL
APPLETON       CLOUDY    30  28  93 SE9       30.13F FOG     WCI  22
CLINTONVILLE   CLOUDY    30  28  93 S6        30.12F FOG     WCI  24
OSHKOSH        CLOUDY    31  28  89 S8        30.13F FOG     WCI  23
$$

WIZ032>034-041-042-053>061-211400-
SOUTHWEST WISCONSIN

CITY           SKY/WX    TMP DP  RH WIND       PRES   REMARKS
LA CROSSE      CLOUDY    35  31  85 SE12      30.03F FOG     WCI  27
SPARTA         CLOUDY    32  31  95 SE7       30.05F FOG     WCI  26
VIROQUA        CLOUDY    31  31 100 SE9       30.03F VSB 1/2 WCI  23
BOSCOBEL       CLOUDY    35  32  88 SW6       30.08F FOG     WCI  30
PRAIRIE DU CHI CLOUDY    33  32  95 SE5       30.06F FOG     WCI  29
PLATTEVILLE    CLOUDY    33  32  98 CALM      30.09S
$$

WIZ056-057-062-063-064-067-068-211400-
SOUTH CENTRAL WISCONSIN

CITY           SKY/WX    TMP DP  RH WIND       PRES   REMARKS
REEDSBURG      CLOUDY    31  30  98 S7        30.09S FOG     WCI  24
BARABOO/DELLS  FOG       31  30  96 SE8       30.09F VSB 1   WCI  24
LONE ROCK      NOT AVBL
MINERAL POINT  FOG       34  32  93 SE10      30.08S VSB 1/2 WCI  26
MADISON        CLOUDY    32  30  92 S13       30.12F FOG     WCI  22
MIDDLETON      CLOUDY    33  33 100 S7        30.12S WCI  27
WATERTOWN      CLOUDY    31  31 100 SE6       30.14S FOG     WCI  25
MONROE         CLOUDY    32  32 100 S10       30.12S FOG     WCI  24
JANESVILLE     CLOUDY    34  30  86 S9        30.15S FOG     WCI  26
$$

WIZ051-052-058>065-066-070>072-211400-
SOUTHEAST WISCONSIN

CITY           SKY/WX    TMP DP  RH WIND       PRES   REMARKS
MILWAUKEE      FRZ DRZL  32  26  78 S8        30.19S WCI  25
WAUKESHA       LGT SNOW  28  27  93 SE9       30.17F WCI  20
MILWAUKEE/TIMM CLOUDY    32  27  80 S7        30.18F HAZE    WCI  26
RACINE         CLOUDY    33  27  78 S8        30.21R WCI  26
BURLINGTON     CLOUDY    30  28  90 S7        30.17F WCI  23
KENOSHA        CLOUDY    32  27  81 S7        30.19S WCI  26
FOND DU LAC    CLOUDY    32  27  81 S8        30.14S WCI  25
SHEBOYGAN      CLOUDY    31  27  85 S7        30.16F WCI  24
WEST BEND      CLOUDY    32  28  86 S6        30.16F FOG     WCI  26
JUNEAU         CLOUDY    31  29  92 SE12      30.14F FOG     WCI  21
$$

LSZ147-162-211400-
LAKE SUPERIOR

STATION/POSITION TIME  TEMP    WIND        PRES    WAVE
                       AIR SEA DIR/SP/G            HT/PER
                 (UTC) (F)     (DEG/KT/KT) (MB)    (FT/S)
DEVILS ISLAND    1200   32     190/  7/  9 1016.9F
PORT WING        1200   32     160/  8/ 11 1015.6
SAXON HARBOR     1200   33     190/  7/ 12 1016.6S
$$

LMZ867-665-643>646-211400-
LAKE MICHIGAN

STATION/POSITION TIME  TEMP    WIND        PRES    WAVE
                       AIR SEA DIR/SP/G            HT/PER
                 (UTC) (F)     (DEG/KT/KT) (MB)    (FT/S)
CHAMBERS ISLAND  1200   31     170/  3/  6 1021.7R
NORTHPORT PIER   1200   30     200/  2/  4 1021.7
SISTER BAY       1213          210/  7/  7   N/A
ALGOMA LAKESHORE 1214          240/  8/ 10   N/A
KEWAUNEE LAKESHO 1200   32     200/  7/  8 1020.6F
SHEBOYGAN LAKESH 1200   34 34  190/  7/  8 1023.0R
PORT WASHINGTON  1200   33     210/  5/  9 1023.0R
MILWAUKEE LAKESH 1200   33     190/  6/  7   N/A
KENOSHA   LAKESH 1200   33     180/  6/ 11 1022.4S
$$

TC  - TEMPERATURE IN CELSIUS
VSB - VISIBILITY IN STATUTE MILES
WCI - WIND CHILL INDEX
HX  - HEAT INDEX



USA.gov is the U.S. government's official web portal to all federal, state and local government web resources and services.